TAPA

Details ICAO TAPA (ANU)
Name Antigua - V C Bird Intl
Region Antigua and Barbuda
Timezone America/Antigua (UTC-4.0)
Plans Departing 277
Arriving 294
Stats Elevation 62 ft / 19 m (AMSL)
Location 17.136737° -61.792662°
Runways 1
Magnetic Variation 14.777° W
Sunrise 2018-05-24 09:34:49 UTC / 2018-05-24 05:34:49 Local
Sunset 2018-05-24 22:36:06 UTC / 2018-05-24 18:36:06 Local
Advertisement - Login to hide

Runways

ID Width Length Bearing (true) Bearing (mag) Surface Threshold Offset Overrun Length
07 148 ft / 45 m 9,022 ft / 2,750 m 58.28° 73.06° Asphalt 656 ft / 200 m 0 ft / 0 m
25 148 ft / 45 m 9,022 ft / 2,750 m 238.29° 253.07° Asphalt 0 ft / 0 m 0 ft / 0 m

Map

Weather


0- 5 10 15 20 25 30 35+ Temperature / ° C

Clouds and Precipitation
Forecast for 2018-05-24 18:00 UTC. Updated an hour ago

Ground ~20,000 ft ~40,000 ft Winds

METAR

TAPA 241800Z 11011KT 9999 SCT020 29/22 Q1017 NOSIG

TAF

TAF TAPA 241700Z 2418/2518 09011KT 9999 SCT020 PROB30 TEMPO 2506/2516 SHRA

Frequencies

Ground 121.90 MHz GND
Approach 119.10 MHz APP
Tower 118.20 MHz TWR
Warning: Do not use this data for real-world aviation or navigation. No guarantee of current accuracy is given.